Regional Weather Roundup
Issued by NWS Grand Forks, ND

Home | Current Version | Previous Version | Text Only | Print | Product List | Glossary On
Versions: 1 2 3 4 5 6 7 8 9 10 11 12 13 14 15 16 17 18 19 20 21 22 23 24 25 26 27 28 29 30 31 32 33 34 35 36 37 38 39 40 41 42 43 44 45 46 47 48 49 50
000
ASUS43 KFGF 112310
RWRFGF
PRAIRIE TO PINES  WEATHER ROUNDUP
NATIONAL WEATHER SERVICE EASTERN NORTH DAKOTA/GRAND FORKS ND
500 PM CST MON DEC 11 2017

 **SATELLITE DATA USED TO AUGMENT SKY COVER AT AUTOMATED STATIONS**
 *****  WEATHER ACROSS EASTERN NORTH DAKOTA  *****

CITY           SKY/WX    TMP DP  RH WIND       PRES   REMARKS
GRAND FORKS    FAIR      12   7  80 N14       30.32R WCI  -3
GRAND FRKS AFB FAIR      13   6  73 N10       30.32R WCI   0
GRAND FRKS NWS   N/A     12 N/A N/A N12         N/A  WCI  -2
DEVILS LAKE    FAIR      20  14  77 NW10      30.31R WCI   9
FARGO          FAIR      15   9  76 N17       30.30R WCI  -1
WAHPETON ARPT    N/A     18  10  73 N16G22    30.28R WCI   3
$$

 ***** WEATHER ACROSS CENTRAL AND WESTERN NORTH DAKOTA  *****

CITY           SKY/WX    TMP DP  RH WIND       PRES   REMARKS
BISMARCK       FAIR      30  21  69 N6        30.33R WCI  24
MINOT          FAIR      28  20  71 W5        30.31R WCI  23
JAMESTOWN      FAIR      20  15  81 N10       30.30R WCI   9
MINOT AFB      FAIR      24  17  75 NW8       30.30R WCI  15
GARRISON         N/A     26  19  74 N8        30.31R WCI  18
WILLISTON      CLOUDY    36  29  75 W5        30.35S
DICKINSON      CLOUDY    34  31  88 NW12      30.31R
HETTINGER      CLOUDY    35  28  75 NW20      30.35R WCI  24
$$

 *****  OTHER AIRPORT OBSERVATIONS IN OUR AREA  *****

CITY           SKY/WX    TMP DP  RH WIND       PRES   REMARKS
WALHALLA       FAIR      14  12  92 NW8       30.33R WCI   3
GRAFTON AIRPOR FAIR      12   7  79 N9        30.35R WCI   0
VALLEY CITY AR FAIR      18  14  86 NW14G20   30.31R WCI   4
CANDO          FAIR      18  12  79 NW7       30.32S WCI   8
CAVALIER APRT  FAIR      12   7  79 N9        30.33R WCI   0
GWINNER          N/A     19  14  79 NW9G16    30.29R WCI   9
SHEYENNE NWR     N/A     20  12  71 N10       29.95S WCI   9
ROLLA          FAIR      18  14  86 W8        30.28S WCI   7
 ***** THE ABOVE OBSERVATIONS ARE NON NWS ARE NOT QUALITY
       CONTROLLED AND MAY MIS-REPORT RAIN FOR SNOW...
$$

  *****  WEATHER ACROSS NORTHERN MINNESOTA  *****

CITY           SKY/WX    TMP DP  RH WIND       PRES   REMARKS
FLAG ISLAND    FAIR       9   3  78 W15       30.19R WCI  -8
WARROAD        FAIR       9   3  78 NW12      30.23R WCI  -6
ROSEAU         FAIR      10   3  72 NW15      30.25R WCI  -6
HALLOCK        MOCLDY    10   7  85 NW10      30.32R WCI  -3
THF RVR FALLS  FAIR       8   4  83 NW17      30.26R WCI -10
BAUDETTE       MOCLDY    11   5  77 NW14      30.17R WCI  -5
WASKISH        FLURRIES  14   9  79 NW15      30.17R WCI  -1
CROOKSTON      MOCLDY    10   7  85 N22       30.31R WCI  -9
STEPHEN NDAWN    N/A     10   5  79 NW8         N/A  WCI  -1
GREENBUSH NDAW   N/A      7   1  78 NW10        N/A  WCI  -8
$$
  *****  WEATHER ACROSS CENTRAL AND WEST MINNESOTA  *****

CITY           SKY/WX    TMP DP  RH WIND       PRES   REMARKS
FOSSTON        MOCLDY     9   3  78 NW12      30.23R WCI  -6
BEMIDJI        LGT SNOW  13   8  81 NW18      30.16R WCI  -4
PARK RAPIDS    FLURRIES  15   9  76 NW17      30.14R WCI  -1
ELBOW LAKE     FAIR      14  10  83 NW16G25   30.22R WCI  -2
WADENA         FLURRIES  16  10  79 NW13      30.15R WCI   2
DETROIT LAKES  FAIR      12   9  85 NW20G25   30.23R WCI  -6
MOORHEAD       FAIR      12   7  79 N18G25    30.30R WCI  -5
FERGUS FALLS   FAIR      12   9  85 N21G32    30.27R WCI  -6
MORRIS MN      FAIR      18  10  73 N25G31    30.21R WCI  -1
STAPLES        FAIR      18  10  73 NW13      30.13R WCI   4
$$
  *****  WEATHER ELSEWHERE ACROSS MINNESOTA  *****

CITY           SKY/WX    TMP DP  RH WIND       PRES   REMARKS
DULUTH         FLURRIES  16  11  80 NW15G23   29.98R WCI   1
INTRNTL FALLS  MOCLDY    12   5  73 NW13      30.11R WCI  -3
ELY            LGT SNOW  12   7  79 NW12G21   30.00R WCI  -2
CLOQUET        FLURRIES  19  10  68 NW9       30.01R WCI   9
WHEATON        FAIR      18  12  79 NW18G26   30.29R WCI   2
BRAINERD       FAIR      20  10  65 N13       30.09R WCI   7
HIBBING        MOCLDY    15   7  70 NW20G30   30.03R WCI  -2
ALEXANDRIA     CLOUDY    17  11  77 N16G30    30.16R WCI   2
SAINT CLOUD    FAIR      23  13  65 N10G21    30.08R WCI  12
MINNEAPOLIS    CLOUDY    29  21  72 N15G28    30.04R WCI  18
$$

  *****  WEATHER ACROSS SOUTH DAKOTA  *****

CITY           SKY/WX    TMP DP  RH WIND       PRES   REMARKS
SIOUX FALLS    FAIR      31  24  75 N18       30.18R WCI  19
BROOKINGS      MOCLDY    25  19  78 N20G25    30.19R WCI  11
WATERTOWN      FAIR      20  15  81 N22       30.21R WCI   3
HURON          FAIR      28  20  71 N15       30.28R WCI  16
SISSETON         N/A     21  14  74 N20       30.27R WCI   6
ABERDEEN       FAIR      24  16  71 N16       30.33R WCI  11
MITCHELL       FAIR      32  25  75 N16       30.26R WCI  21
PIERRE         CLOUDY    37  31  78 NW17      30.31R
MOBRIDGE       MOCLDY    37  26  64 N15       30.28R
RAPID CITY     FAIR      39  22  50 N24G35    30.34R
$$

  *****  SOME WEATHER IN NEARBY STATES *****

CITY           SKY/WX    TMP DP  RH WIND       PRES   REMARKS
GLASGOW MT     FAIR      35  25  66 NW7       30.38S
GREAT FALLS MT FAIR      47  13  25 SW12      30.36F
CHEYENNE WY    FAIR      45  11  25 N15G21    30.40R
SCOTTSBLUFF NE FAIR      48  13  24 NW21G29   30.36R
OMAHA NE       CLOUDY    41  29  62 N22G33    30.13R
DES MOINES IA  CLOUDY    38  30  73 NW21G29   30.01R
DAVENPORT IA   FLURRIES  34  32  92 NW15      29.84R WCI  24
CHICAGO IL     LGT SNOW  33  29  85 NW9       29.73R FOG
EAU CLAIRE WI  CLOUDY    29  19  66 NW17G30   29.92R WCI  17
LA CROSSE WI   CLOUDY    34  27  75 N16       29.89R WCI  24
$$

  *****  SOME NATIONAL WEATHER *****

CITY           SKY/WX    TMP DP  RH WIND       PRES   REMARKS
LA GUARDIA NY  MOCLDY    40  20  44 SW7       30.01R
RALEIGH NC     FAIR      44  32  62 CALM      30.01R
ATLANTA GA     FAIR      54  33  45 SW6       30.01F
NEW ORLEANS LA MOCLDY    64  39  39 SW8       30.14F
OKLAHOMA CITY  FAIR      58  17  20 N8        30.14R
ALBUQUERQUE NM MOCLDY    51   2  13 CALM      30.36F
SALT LAKE CITY FOG       28  26  92 N5        30.56F VSB 1/4 WCI  23
LOS ANGELES CA FAIR      75  16  10 W12       30.16S
BOISE ID       CLOUDY    25  21  85 NW6       30.64S WCI  18
SEATTLE WA     FAIR      46  37  71 S7        30.37R
$$

*** WEATHER ACROSS MANITOBA...SASKATCHEWAN AND ONTARIO ***
                ***ONTARIO***

CITY           SKY/WX    TMP DP  RH WIND       PRES   REMARKS
GERALDTON      FLURRIES   1  -4  78 N12G21    29.87R WCI -15
THUNDER BAY    MOCLDY    12   3  67 NW12G28   29.96R WCI  -2
SIOUX LOOKOUT  FLURRIES   5   0  78 NW9       30.06R WCI  -9
TORONTO        LGT SNOW  27  23  86 S6        29.87S WCI  20
BIG TROUT LK   LGT SNOW  -2  -8  78 N12G22    30.02R WCI -20
PICKLE LAKE    CRYSTALS  -4  -8  84 NW6       29.99R WCI -16
DRYDEN         FLURRIES   7   1  78 NW10      30.08R WCI  -8
KENORA         PTCLDY     7   0  72 NW12G18   30.15R WCI  -9
$$
                *** MANITOBA***

CITY           SKY/WX    TMP DP  RH WIND       PRES   REMARKS
BRANDON        PTCLDY    14  10  85 W8        30.30R WCI   3
DAUPHIN        CLEAR      7   5  92 SW3       30.30S
ISLAND LAKE    NOT AVBL
PILOT MOUND      N/A     12   9  85 N3          N/A
THE PAS        CLOUDY    10   5  79 NW5       30.27S WCI   2
THOMPSON       PTCLDY    -8 -13  77 W9        30.22S WCI -25
WINNIPEG       PTCLDY     7   1  78 NW12      30.33R WCI  -9
LYNN LAKE      CLOUDY     0  -2  92 SW7       30.17F WCI -13
CHURCHILL      CRYSTALS -13 -18  77 NW17      30.13R WCI -38
GILLAM         PTCLDY   -11 -17  77 W6        30.16R WCI -25
$$
                ***SASKATCHEWAN***

CITY           SKY/WX    TMP DP  RH WIND       PRES   REMARKS
ESTEVAN        CLOUDY    32  27  80 NW13G18   30.31S WCI  22
KINDERSLEY     PTCLDY    36  25  64 SW16      30.27F
LLOYDMINSTER   MOCLDY    34  27  75 W10       30.18F
PRINCE ALBERT  MOCLDY    34  30  86 SW5       30.22S
REGINA         PTCLDY    30  28  93 SW6       30.28S WCI  24
YORKTON        FLURRIES  25  21  86 CALM      30.27S
N. BATTLEFORD  CLEAR     28  21  74 SW6       30.25F WCI  22
LA RONGE       FLURRIES  19  18  93 S3        30.19S
SASKATOON      PTCLDY    28  25  86 SW10G17   30.27S WCI  19
SWIFT CURRENT  CLEAR     34  23  64 W12       30.30F
$$
NOTE: THESE ARE AUTOMATED STATIONS WITH LIMITED QUALITY CONTROL
      "FAIR" INDICATES FEW OR NO CLOUDS BELOW 12,000 FEET WITH NO
      SIGNIFICANT WEATHER AND/OR OBSTRUCTIONS TO VISIBILITY.
      SKY/WX - SKY CONDITION AND SIGNIFICANT WEATHER.
      TMP - AIR TEMPERATURE.    DP   - DEWPOINT TEMPERATURE.
      RH  - RELATIVE HUMIDITY.  PRES - PRESSURE.
      HX  - HEAT INDEX.         WCI  - WIND CHILL INDEX.
$




USA.gov is the U.S. government's official web portal to all federal, state and local government web resources and services.